Wind_Speed
3 4 4 5 5 5 5 5 5 5 5 5 5 5 5 6 6 6 6 6 6 6 6 6 6 6 7 7 7 6 6 6 6 7 7 7 7 7 6 6 6 6 6
4 5 5 5 6 6 6 6 6 6 6 6 6 6 6 7 8 8 7 7 7 7 7 7 7 7 7 7 7 7 7 7 8 8 8 8 7 7 8 7 7 7 6
5 5 6 6 6 7 7 7 7 7 7 7 7 7 7 8 8 9 9 9 9 9 8 8 8 8 8 8 8 7 7 7 8 8 8 8 8 8 8 7 7 7 7
6 6 7 7 7 7 7 7 7 7 8 8 8 8 8 9 9 9 10 10 10 9 9 8 8 9 9 8 8 8 8 8 8 8 8 8 8 7 8 8 8 8 8
6 7 7 7 7 7 8 8 8 8 8 8 8 9 9 9 9 10 10 10 10 9 9 8 8 9 9 9 8 8 8 8 8 8 8 7 7 7 7 8 8 7 7
6 7 7 7 8 8 8 8 8 8 7 8 8 8 9 9 9 10 10 10 10 9 8 8 8 9 9 9 9 9 9 9 9 8 8 7 7 8 8 8 8 8 8
7 7 7 7 7 7 7 7 7 7 7 7 8 8 9 9 9 10 10 10 9 10 9 9 8 9 9 10 10 10 10 10 10 9 9 9 9 9 9 9 9 10 10
7 7 7 7 7 7 7 7 7 7 7 7 8 8 8 8 8 9 10 10 10 10 10 9 9 9 10 10 10 11 11 11 10 9 9 9 10 10 10 10 10 10 10
7 7 7 7 7 7 7 7 7 7 7 7 7 8 8 8 9 9 9 9 10 10 10 10 10 10 10 10 10 10 10 10 10 9 9 10 10 10 10 10 10 10 10
7 7 7 7 7 7 7 7 7 7 7 7 8 8 8 8 8 8 8 9 9 9 9 10 10 10 10 10 10 9 9 10 10 10 10 11 10 10 10 10 10 10 10
8 8 7 7 7 7 7 7 7 8 7 7 8 8 8 8 8 8 8 8 8 8 9 9 9 9 9 9 9 9 9 9 10 10 10 10 10 11 11 11 11 11 11
8 8 7 7 7 8 8 7 8 8 8 8 8 8 8 8 8 8 7 7 7 7 8 8 9 9 9 9 9 9 10 10 9 9 9 9 10 11 11 11 12 12 12
8 8 7 7 7 7 7 8 8 7 7 8 8 8 7 8 8 8 7 7 7 7 7 8 8 9 10 9 9 10 10 10 9 9 10 10 10 11 11 11 12 12 11
9 8 8 8 7 7 7 7 7 7 7 8 8 8 7 8 8 7 7 7 7 8 8 8 8 9 10 11 11 10 10 9 9 9 9 9 10 10 10 10 10 11 11
9 9 9 8 7 7 7 7 7 7 7 8 8 7 7 7 7 7 6 7 8 7 7 7 8 9 10 10 10 10 10 10 10 10 9 9 9 9 10 10 10 9 9
9 9 8 8 8 7 7 7 7 7 8 8 8 8 7 8 7 7 6 6 6 7 8 8 8 9 10 10 10 10 10 10 9 9 8 8 9 9 9 8 8 8 8
9 9 8 8 8 8 7 8 8 7 8 8 8 8 7 7 7 7 6 6 6 6 7 8 9 9 9 9 9 9 10 9 9 8 8 8 8 8 8 7 7 7 7
9 9 8 8 8 7 8 8 8 7 7 7 7 7 7 7 6 7 7 6 7 7 7 8 8 8 8 7 8 8 9 9 9 8 8 7 7 7 7 6 6 6 6
9 9 9 8 8 8 8 7 7 7 6 6 7 7 7 7 7 7 6 6 6 6 6 7 7 6 7 7 7 7 7 8 8 8 8 7 7 7 7 7 7 7 6
8 8 9 8 8 8 8 7 7 7 7 7 7 7 7 8 7 7 6 6 5 5 6 6 6 6 6 7 7 7 7 8 8 8 7 8 8 7 7 7 8 7 8
9 8 8 8 8 7 8 7 7 6 7 6 6 7 7 8 8 8 8 7 7 7 7 7 7 7 7 7 7 7 7 8 7 8 8 8 7 7 7 8 8 9 8
9 9 9 8 8 8 8 8 7 7 7 7 7 7 7 7 8 7 8 8 8 8 8 8 7 8 8 8 8 8 8 8 8 8 8 7 7 7 8 8 8 9 8
10 10 9 9 9 9 9 9 8 7 7 7 7 7 7 8 8 8 9 9 9 8 8 8 8 8 8 7 8 8 8 8 8 7 8 7 7 7 7 8 8 8 8
11 10 10 11 10 10 10 9 9 9 8 8 8 8 8 8 9 9 9 10 10 9 8 8 8 8 8 8 7 7 7 7 8 8 8 7 7 7 7 7 7 8 8
12 11 11 12 12 11 11 10 10 10 10 10 9 9 9 9 9 9 10 11 10 10 9 8 8 8 8 7 7 7 7 7 8 8 8 8 8 8 8 8 8 8 9
13 12 13 13 13 13 12 11 11 11 11 11 10 10 10 10 10 10 10 11 10 10 10 9 9 9 8 8 7 7 8 8 8 8 8 8 9 9 9 9 9 9 9
Wind_Direction
311 303 295 295 290 289 287 287 290 291 297 300 300 294 286 280 277 277 284 285 283 280 278 280 280 282 280 277 279 280 278 275 272 272 277 282 283 272 268 264 260 263 255
302 298 296 295 294 293 289 286 286 288 290 293 294 291 286 283 282 281 281 281 283 283 285 279 279 280 279 276 278 279 278 276 276 273 275 278 278 276 267 263 259 258 257
301 291 291 297 297 295 291 289 288 292 293 291 293 291 287 281 279 278 278 278 282 283 283 281 276 277 280 279 280 280 281 279 276 274 274 275 275 273 269 269 264 263 263
306 297 293 296 297 295 291 288 288 291 292 290 291 292 289 285 280 277 276 278 280 280 278 275 274 273 277 277 276 278 281 280 278 275 273 273 274 271 272 274 271 268 269
308 304 302 299 296 293 291 288 287 287 287 289 289 289 288 289 285 278 275 278 279 279 275 271 272 273 275 274 271 274 278 278 276 275 273 274 274 271 274 276 273 269 266
305 303 299 295 295 292 290 289 285 287 291 288 285 286 286 286 284 282 280 277 275 276 275 275 276 273 274 274 271 271 275 277 273 273 271 271 273 271 272 273 272 271 269
304 300 298 297 296 292 289 287 283 286 291 288 283 285 286 285 282 280 279 277 273 271 267 270 272 271 274 273 273 270 270 272 276 273 271 269 270 274 274 272 272 270 268
307 302 300 299 297 294 290 288 284 285 289 290 288 287 285 284 284 280 278 276 273 269 265 266 267 269 274 273 273 272 269 269 273 273 271 271 271 273 273 273 269 267 264
307 306 305 300 299 296 293 288 288 285 287 289 289 286 285 284 280 279 278 275 273 269 265 265 269 268 271 272 271 272 271 270 270 272 271 271 271 270 269 268 268 269 268
308 306 305 302 302 301 298 292 287 285 283 283 283 282 283 280 277 275 274 272 270 267 265 267 266 266 270 270 271 272 276 274 273 273 272 272 272 269 267 266 268 268 269
311 308 306 298 297 300 300 295 291 287 282 283 282 281 278 277 275 275 273 269 266 264 263 265 263 260 265 266 268 272 277 280 278 280 279 275 270 269 269 269 267 267 269
315 310 305 300 297 299 303 297 292 289 286 290 287 285 278 275 274 271 272 268 263 265 265 264 261 262 264 264 267 274 277 279 279 279 279 279 275 273 272 269 267 267 268
318 312 306 303 298 302 306 301 292 290 292 294 290 285 280 275 274 271 269 267 266 266 266 265 263 264 264 265 267 271 275 276 277 279 274 273 274 274 274 272 268 266 267
318 315 309 303 296 298 302 304 297 291 295 296 291 286 279 276 274 270 267 264 269 269 265 266 265 266 266 266 267 268 270 273 276 278 275 273 273 273 273 272 270 269 267
320 320 316 312 307 299 297 304 303 296 293 291 289 281 273 275 274 268 272 273 273 271 269 270 272 269 270 268 267 267 267 270 275 276 274 275 276 277 276 272 269 271 272
320 320 320 320 314 310 301 301 302 296 292 290 286 281 273 275 269 271 271 274 274 269 270 274 275 273 273 273 269 267 266 269 271 277 278 277 277 277 279 276 273 272 274
321 319 316 315 311 308 306 300 298 293 294 292 288 282 277 275 272 270 268 265 268 269 269 273 274 272 273 269 269 268 267 269 273 275 277 275 276 278 278 272 276 278 280
321 318 314 315 311 307 304 301 295 296 296 293 285 281 278 270 268 266 261 256 263 268 271 272 274 272 275 274 272 271 270 268 271 276 276 274 274 273 272 267 271 278 287
316 315 313 311 309 304 302 303 293 292 291 292 289 284 281 271 266 261 253 254 260 264 271 274 279 277 280 278 277 275 273 270 269 273 275 274 273 272 273 267 268 274 281
311 312 312 308 307 305 304 308 300 291 286 288 289 285 281 270 262 253 253 257 261 267 271 277 278 277 283 281 278 275 273 273 272 272 274 274 269 268 269 267 268 274 282
304 307 309 308 309 307 305 304 300 296 292 287 287 288 286 271 258 253 257 261 265 268 270 276 276 278 280 280 276 275 272 272 276 276 274 271 266 265 266 269 269 273 277
296 299 303 304 306 305 302 301 296 295 294 292 287 284 283 273 260 251 258 264 265 265 263 270 274 276 280 278 275 277 275 274 277 275 272 268 265 266 267 270 270 270 274
292 293 297 300 301 300 299 299 296 291 289 286 281 280 278 270 262 255 260 263 265 265 264 266 270 273 278 276 276 276 276 273 272 272 271 270 271 271 271 273 271 269 272
288 289 294 295 296 296 297 296 291 288 284 281 279 275 268 264 263 264 266 262 261 260 261 263 269 273 276 276 276 274 275 275 274 273 273 268 267 274 277 275 269 268 272
285 289 290 291 292 293 294 293 290 285 282 280 275 272 268 267 267 266 271 264 257 256 258 260 262 267 272 272 273 272 273 275 275 276 274 270 270 273 275 272 267 270 273
283 285 287 290 291 291 291 290 287 283 282 281 276 271 270 269 266 265 270 263 255 254 256 257 256 260 262 266 270 271 273 276 277 274 271 268 270 272 272 269 267 273 273
Height
5875 5875 5875 5875 5874 5874 5874 5874 5873 5873 5873 5873 5873 5873 5873 5873 5873 5874 5874 5874 5874 5874 5875 5875 5875 5875 5875 5875 5875 5875 5876 5876 5876 5876 5876 5876 5876 5876 5876 5876 5877 5877 5878
5875 5874 5874 5874 5873 5873 5873 5873 5872 5872 5872 5872 5872 5871 5872 5872 5872 5872 5872 5873 5873 5873 5873 5874 5874 5874 5874 5874 5874 5874 5874 5874 5874 5874 5874 5874 5874 5875 5875 5875 5875 5876 5876
5874 5873 5873 5873 5872 5872 5872 5872 5871 5871 5870 5870 5870 5870 5870 5870 5870 5871 5871 5871 5871 5871 5872 5872 5872 5872 5873 5873 5873 5873 5873 5873 5873 5873 5873 5873 5873 5873 5873 5874 5874 5875 5875
5873 5872 5872 5871 5871 5871 5870 5870 5870 5869 5869 5869 5869 5869 5869 5869 5869 5869 5869 5869 5869 5870 5870 5870 5871 5871 5871 5871 5871 5872 5871 5871 5871 5871 5871 5871 5871 5872 5872 5872 5872 5873 5873
5872 5871 5871 5870 5870 5869 5869 5868 5868 5868 5867 5867 5867 5867 5867 5867 5867 5867 5867 5867 5867 5868 5868 5869 5869 5869 5869 5870 5870 5870 5870 5869 5870 5870 5870 5870 5870 5870 5870 5871 5871 5871 5871
5871 5870 5869 5869 5868 5867 5867 5866 5866 5866 5865 5865 5865 5865 5865 5865 5865 5865 5865 5865 5866 5866 5866 5867 5867 5867 5868 5868 5868 5868 5868 5868 5868 5868 5868 5868 5869 5868 5868 5869 5869 5869 5869
5869 5868 5868 5867 5866 5866 5865 5865 5864 5864 5863 5863 5863 5863 5863 5863 5863 5863 5863 5863 5864 5864 5865 5865 5865 5865 5865 5866 5866 5866 5866 5866 5866 5866 5866 5867 5867 5867 5867 5867 5867 5867 5868
5868 5867 5866 5866 5865 5864 5863 5863 5862 5862 5862 5862 5862 5861 5861 5861 5861 5861 5861 5861 5862 5862 5862 5863 5863 5864 5863 5864 5864 5864 5864 5864 5864 5864 5864 5865 5865 5865 5865 5865 5865 5865 5865
5867 5866 5865 5864 5863 5863 5862 5861 5861 5860 5860 5860 5860 5860 5859 5859 5859 5859 5859 5859 5860 5860 5860 5861 5861 5861 5861 5862 5862 5861 5861 5862 5862 5862 5862 5863 5862 5863 5863 5862 5863 5863 5863
5865 5864 5864 5863 5862 5861 5860 5860 5859 5859 5858 5858 5858 5858 5858 5858 5858 5857 5857 5858 5858 5858 5858 5859 5859 5859 5859 5859 5860 5860 5860 5860 5860 5860 5860 5860 5860 5860 5860 5860 5860 5860 5860
5864 5863 5862 5861 5860 5860 5859 5858 5858 5857 5857 5856 5856 5856 5856 5856 5856 5855 5856 5856 5856 5856 5856 5857 5857 5857 5857 5857 5858 5858 5858 5858 5858 5858 5858 5858 5858 5858 5858 5858 5858 5858 5858
5862 5861 5860 5859 5859 5858 5857 5857 5856 5856 5855 5855 5854 5854 5854 5854 5854 5854 5854 5854 5854 5854 5854 5855 5855 5855 5855 5855 5856 5856 5856 5856 5856 5856 5856 5856 5855 5855 5855 5855 5855 5855 5855
5861 5859 5859 5858 5857 5856 5856 5855 5854 5854 5853 5853 5853 5852 5852 5852 5852 5852 5852 5852 5852 5852 5852 5853 5853 5853 5853 5853 5853 5854 5854 5854 5854 5854 5854 5854 5853 5853 5853 5853 5853 5853 5853
5859 5858 5857 5856 5855 5855 5854 5853 5853 5852 5852 5851 5851 5850 5850 5850 5850 5850 5850 5850 5851 5851 5851 5851 5851 5851 5851 5851 5851 5852 5852 5852 5852 5852 5852 5851 5851 5851 5851 5850 5850 5850 5850
5857 5856 5855 5854 5854 5853 5852 5852 5851 5851 5850 5850 5849 5849 5849 5849 5849 5849 5849 5849 5849 5849 5849 5849 5849 5849 5849 5849 5849 5849 5850 5850 5850 5850 5850 5849 5849 5849 5848 5848 5848 5848 5848
5856 5855 5854 5853 5852 5851 5851 5850 5850 5849 5848 5848 5847 5847 5847 5847 5847 5847 5847 5847 5847 5847 5847 5847 5847 5847 5847 5847 5847 5847 5847 5848 5848 5848 5847 5847 5847 5847 5846 5846 5845 5845 5846
5855 5854 5852 5852 5851 5850 5849 5849 5848 5847 5847 5846 5846 5846 5845 5846 5845 5846 5846 5846 5846 5845 5845 5845 5845 5845 5845 5845 5845 5845 5845 5846 5846 5846 5845 5845 5845 5844 5844 5844 5844 5844 5844
5854 5853 5851 5850 5850 5849 5848 5847 5846 5846 5845 5845 5844 5844 5844 5844 5844 5844 5844 5844 5844 5844 5844 5844 5844 5844 5843 5843 5843 5843 5843 5844 5844 5844 5843 5843 5843 5843 5842 5842 5842 5842 5842
5853 5852 5850 5849 5848 5847 5847 5845 5845 5844 5844 5843 5843 5843 5842 5842 5842 5842 5842 5842 5843 5843 5843 5843 5842 5842 5842 5842 5841 5842 5842 5842 5842 5842 5841 5841 5841 5841 5841 5841 5841 5841 5841
5851 5850 5849 5848 5847 5846 5845 5844 5844 5843 5842 5842 5841 5841 5841 5841 5841 5840 5841 5841 5841 5841 5841 5841 5841 5841 5840 5840 5840 5840 5840 5840 5840 5840 5839 5839 5839 5839 5839 5839 5839 5839 5839
5850 5849 5847 5847 5846 5845 5844 5843 5842 5841 5841 5840 5840 5840 5839 5839 5839 5839 5839 5839 5840 5840 5840 5840 5840 5840 5839 5839 5839 5839 5839 5839 5838 5838 5838 5837 5837 5837 5837 5838 5838 5838 5838
5848 5847 5846 5845 5844 5843 5842 5841 5840 5839 5839 5838 5838 5838 5837 5837 5837 5838 5838 5838 5838 5838 5838 5838 5838 5838 5838 5838 5838 5837 5837 5838 5837 5836 5836 5836 5836 5836 5836 5836 5836 5836 5836
5846 5845 5844 5843 5842 5841 5840 5839 5838 5838 5837 5837 5836 5836 5836 5835 5836 5836 5836 5836 5836 5836 5836 5836 5837 5837 5836 5836 5836 5836 5836 5835 5835 5835 5835 5834 5834 5834 5834 5834 5834 5834 5834
5843 5842 5841 5840 5840 5839 5838 5837 5836 5836 5835 5835 5834 5834 5834 5834 5834 5834 5834 5834 5834 5834 5834 5834 5834 5835 5835 5834 5834 5834 5834 5834 5834 5833 5833 5833 5833 5833 5833 5832 5832 5833 5833
5840 5840 5839 5838 5837 5836 5836 5835 5834 5833 5833 5833 5832 5832 5832 5832 5832 5832 5832 5831 5832 5832 5832 5832 5832 5832 5833 5833 5833 5833 5832 5832 5832 5832 5831 5831 5831 5831 5831 5831 5831 5831 5831
5837 5837 5836 5835 5834 5833 5833 5832 5831 5831 5830 5830 5829 5829 5829 5829 5829 5829 5829 5829 5829 5830 5830 5830 5830 5830 5830 5831 5831 5831 5830 5830 5830 5830 5829 5829 5829 5829 5829 5828 5828 5828 5828